Time,TemperatureF,DewpointF,PressureIn,WindDirection,WindDirectionDegrees,WindSpeedMPH,WindSpeedGustMPH,Humidity,HourlyPrecipIn,Conditions,Clouds,dailyrainin,SoftwareType,DateUTC
2013-01-30 00:05:00,68.7,63.0,29.79,SW,225,0.0,0.0,82,0.00,,---,0.00,VWS V13.01,2013-01-30 05:05:00,
2013-01-30 00:06:00,68.7,63.0,29.79,SW,225,0.0,0.0,82,0.00,,---,0.00,VWS V13.01,2013-01-30 05:06:00,
2013-01-30 00:07:00,68.7,63.0,29.79,SW,225,0.0,0.0,82,0.00,,---,0.00,VWS V13.01,2013-01-30 05:07:00,
2013-01-30 00:09:00,68.7,63.0,29.79,SW,225,0.0,0.0,82,0.00,,---,0.00,VWS V13.01,2013-01-30 05:09:00,
2013-01-30 00:14:00,68.7,63.0,29.79,SW,225,0.0,0.0,82,0.00,,---,0.00,VWS V13.01,2013-01-30 05:14:00,
2013-01-30 00:19:00,68.5,62.8,29.78,SW,225,0.0,0.0,82,0.00,,---,0.00,VWS V13.01,2013-01-30 05:19:00,
2013-01-30 00:24:00,68.5,62.8,29.78,SW,225,0.0,0.0,82,0.00,,---,0.00,VWS V13.01,2013-01-30 05:24:00,
2013-01-30 00:29:00,68.5,63.1,29.78,SW,225,0.0,0.0,83,0.00,,---,0.00,VWS V13.01,2013-01-30 05:29:00,
2013-01-30 00:34:00,68.3,62.9,29.78,SW,225,0.0,0.0,83,0.00,,---,0.00,VWS V13.01,2013-01-30 05:34:00,
2013-01-30 00:39:00,68.3,62.9,29.78,SW,225,0.0,0.0,83,0.00,,---,0.00,VWS V13.01,2013-01-30 05:39:00,
2013-01-30 00:44:00,68.3,62.9,29.78,SW,225,0.0,0.0,83,0.00,,---,0.00,VWS V13.01,2013-01-30 05:44:00,
2013-01-30 00:49:00,68.3,62.9,29.78,SW,225,0.0,0.0,83,0.00,,---,0.00,VWS V13.01,2013-01-30 05:49:00,
2013-01-30 00:54:00,68.1,62.8,29.78,SW,225,0.0,0.0,83,0.00,,---,0.00,VWS V13.01,2013-01-30 05:54:00,
2013-01-30 00:59:00,68.1,62.8,29.78,SW,225,0.0,0.0,83,0.00,,---,0.00,VWS V13.01,2013-01-30 05:59:00,
2013-01-30 01:05:00,68.0,62.7,29.78,SW,225,0.0,0.0,83,0.00,,---,0.00,VWS V13.01,2013-01-30 06:05:00,
2013-01-30 01:10:00,68.0,62.7,29.78,SW,225,0.0,0.0,83,0.00,,---,0.00,VWS V13.01,2013-01-30 06:10:00,
2013-01-30 01:15:00,67.8,62.5,29.78,SW,225,0.0,0.0,83,0.00,,---,0.00,VWS V13.01,2013-01-30 06:15:00,
2013-01-30 01:20:00,67.8,62.5,29.79,SW,225,0.0,0.0,83,0.00,,---,0.00,VWS V13.01,2013-01-30 06:20:00,
2013-01-30 01:26:00,67.6,62.3,29.79,SW,225,0.0,0.0,83,0.00,,---,0.00,VWS V13.01,2013-01-30 06:26:00,
2013-01-30 01:31:00,67.6,62.3,29.79,SW,225,0.0,0.0,83,0.00,,---,0.00,VWS V13.01,2013-01-30 06:31:00,
2013-01-30 01:36:00,67.2,61.9,29.79,SW,225,0.0,0.0,83,0.00,,---,0.00,VWS V13.01,2013-01-30 06:36:00,
2013-01-30 01:41:00,67.2,61.9,29.79,SW,225,0.0,0.0,83,0.00,,---,0.00,VWS V13.01,2013-01-30 06:41:00,
2013-01-30 01:46:00,67.1,62.1,29.79,SW,225,0.0,0.0,84,0.00,,---,0.00,VWS V13.01,2013-01-30 06:46:00,
2013-01-30 01:51:00,66.9,61.9,29.79,SW,225,0.0,0.0,84,0.00,,---,0.00,VWS V13.01,2013-01-30 06:51:00,
2013-01-30 01:56:00,66.9,61.9,29.79,SW,225,0.0,0.0,84,0.00,,---,0.00,VWS V13.01,2013-01-30 06:56:00,
2013-01-30 02:01:00,66.9,61.9,29.79,SW,225,0.0,0.0,84,0.00,,---,0.00,VWS V13.01,2013-01-30 07:01:00,
2013-01-30 02:06:00,66.7,61.7,29.79,SW,225,0.0,0.0,84,0.00,,---,0.00,VWS V13.01,2013-01-30 07:06:00,
2013-01-30 02:11:00,66.7,61.7,29.78,SW,225,0.0,0.0,84,0.00,,---,0.00,VWS V13.01,2013-01-30 07:11:00,
2013-01-30 02:16:00,66.7,61.7,29.78,SW,225,0.0,0.0,84,0.00,,---,0.00,VWS V13.01,2013-01-30 07:16:00,
2013-01-30 02:21:00,66.5,61.5,29.78,SW,225,0.0,0.0,84,0.00,,---,0.00,VWS V13.01,2013-01-30 07:21:00,
2013-01-30 02:26:00,66.5,61.5,29.78,SW,225,0.0,0.0,84,0.00,,---,0.00,VWS V13.01,2013-01-30 07:26:00,
2013-01-30 02:31:00,66.3,61.3,29.78,SW,225,0.0,0.0,84,0.00,,---,0.00,VWS V13.01,2013-01-30 07:31:00,
2013-01-30 02:36:00,66.3,61.3,29.78,SW,225,0.0,0.0,84,0.00,,---,0.00,VWS V13.01,2013-01-30 07:36:00,
2013-01-30 02:41:00,66.3,61.3,29.78,SW,225,0.0,0.0,84,0.00,,---,0.00,VWS V13.01,2013-01-30 07:41:00,
2013-01-30 02:47:00,66.3,61.3,29.77,SW,225,0.0,0.0,84,0.00,,---,0.00,VWS V13.01,2013-01-30 07:47:00,
2013-01-30 02:52:00,66.3,61.3,29.77,SW,225,0.0,0.0,84,0.00,,---,0.00,VWS V13.01,2013-01-30 07:52:00,
2013-01-30 02:57:00,66.3,61.3,29.77,SW,225,0.0,0.0,84,0.00,,---,0.00,VWS V13.01,2013-01-30 07:57:00,
2013-01-30 03:02:00,66.3,61.7,29.77,SW,225,0.0,0.0,85,0.00,,---,0.00,VWS V13.01,2013-01-30 08:02:00,
2013-01-30 03:07:00,66.5,61.9,29.76,SW,225,0.0,0.0,85,0.00,,---,0.00,VWS V13.01,2013-01-30 08:07:00,
2013-01-30 03:12:00,66.7,62.0,29.76,WNW,292,0.0,0.0,85,0.00,,---,0.00,VWS V13.01,2013-01-30 08:12:00,
2013-01-30 03:17:00,66.9,62.2,29.76,WNW,292,0.0,0.0,85,0.00,,---,0.00,VWS V13.01,2013-01-30 08:17:00,
2013-01-30 03:22:00,66.9,62.2,29.76,WNW,292,0.0,0.0,85,0.00,,---,0.00,VWS V13.01,2013-01-30 08:22:00,
2013-01-30 03:27:00,67.1,62.5,29.76,WNW,292,0.0,0.0,85,0.00,,---,0.00,VWS V13.01,2013-01-30 08:27:00,
2013-01-30 03:32:00,67.2,62.5,29.76,West,270,0.0,0.0,85,0.00,,---,0.00,VWS V13.01,2013-01-30 08:32:00,
2013-01-30 03:37:00,67.2,62.5,29.75,West,270,0.0,0.0,85,0.00,,---,0.00,VWS V13.01,2013-01-30 08:37:00,
2013-01-30 03:42:00,67.2,62.5,29.75,West,270,0.0,0.0,85,0.00,,---,0.00,VWS V13.01,2013-01-30 08:42:00,
2013-01-30 03:47:00,67.4,62.7,29.75,West,270,0.0,0.0,85,0.00,,---,0.00,VWS V13.01,2013-01-30 08:47:00,
2013-01-30 03:52:00,67.6,62.9,29.75,West,270,0.0,0.0,85,0.00,,---,0.00,VWS V13.01,2013-01-30 08:52:00,
2013-01-30 03:57:00,67.6,62.9,29.75,West,270,0.0,0.0,85,0.00,,---,0.00,VWS V13.01,2013-01-30 08:57:00,
2013-01-30 04:02:00,67.6,62.9,29.74,SW,225,0.0,0.0,85,0.00,,---,0.00,VWS V13.01,2013-01-30 09:02:00,
2013-01-30 04:07:00,67.4,62.7,29.74,SW,225,0.0,0.0,85,0.00,,---,0.00,VWS V13.01,2013-01-30 09:07:00,
2013-01-30 04:12:00,67.4,62.7,29.74,SW,225,0.0,0.0,85,0.00,,---,0.00,VWS V13.01,2013-01-30 09:12:00,
2013-01-30 04:17:00,67.2,62.5,29.74,SW,225,0.0,0.0,85,0.00,,---,0.00,VWS V13.01,2013-01-30 09:17:00,
2013-01-30 04:22:00,67.4,62.7,29.74,SW,225,0.0,0.0,85,0.00,,---,0.00,VWS V13.01,2013-01-30 09:22:00,
2013-01-30 04:27:00,67.4,62.7,29.74,SW,225,0.0,0.0,85,0.00,,---,0.00,VWS V13.01,2013-01-30 09:27:00,
2013-01-30 04:32:00,67.4,62.7,29.74,West,270,0.0,0.0,85,0.00,,---,0.00,VWS V13.01,2013-01-30 09:32:00,
2013-01-30 04:37:00,67.2,62.5,29.74,SW,225,0.0,0.0,85,0.00,,---,0.00,VWS V13.01,2013-01-30 09:37:00,
2013-01-30 04:42:00,67.2,62.5,29.74,SW,225,0.0,0.0,85,0.00,,---,0.00,VWS V13.01,2013-01-30 09:42:00,
2013-01-30 04:47:00,67.2,62.5,29.73,SW,225,0.0,0.0,85,0.00,,---,0.00,VWS V13.01,2013-01-30 09:47:00,
2013-01-30 04:52:00,67.4,62.7,29.74,SSW,202,0.9,0.9,85,0.00,,---,0.00,VWS V13.01,2013-01-30 09:52:00,
2013-01-30 04:57:00,67.4,62.7,29.74,SSW,202,0.9,0.9,85,0.00,,---,0.00,VWS V13.01,2013-01-30 09:57:00,
2013-01-30 05:02:00,67.2,62.5,29.75,SSW,202,0.0,0.0,85,0.00,,---,0.00,VWS V13.01,2013-01-30 10:02:00,
2013-01-30 05:07:00,67.2,62.5,29.75,SSW,202,0.0,0.0,85,0.00,,---,0.00,VWS V13.01,2013-01-30 10:07:00,
2013-01-30 05:12:00,67.1,62.5,29.75,SSW,202,0.0,0.0,85,0.00,,---,0.00,VWS V13.01,2013-01-30 10:12:00,
2013-01-30 05:17:00,67.1,62.1,29.75,SSW,202,0.0,0.0,84,0.00,,---,0.00,VWS V13.01,2013-01-30 10:17:00,
2013-01-30 05:22:00,66.9,61.9,29.75,SSW,202,0.0,0.0,84,0.00,,---,0.00,VWS V13.01,2013-01-30 10:22:00,
2013-01-30 05:27:00,66.9,61.9,29.75,SSW,202,0.0,0.0,84,0.00,,---,0.00,VWS V13.01,2013-01-30 10:27:00,
2013-01-30 05:32:00,66.9,61.9,29.75,SSW,202,0.0,0.0,84,0.00,,---,0.00,VWS V13.01,2013-01-30 10:32:00,
2013-01-30 05:37:00,66.7,61.7,29.75,SSW,202,0.0,0.0,84,0.00,,---,0.00,VWS V13.01,2013-01-30 10:37:00,
2013-01-30 05:42:00,66.7,61.7,29.75,SSW,202,0.0,0.0,84,0.00,,---,0.00,VWS V13.01,2013-01-30 10:42:00,
2013-01-30 05:48:00,66.5,61.5,29.75,SSW,202,0.0,0.0,84,0.00,,---,0.00,VWS V13.01,2013-01-30 10:48:00,
2013-01-30 05:53:00,66.3,61.3,29.75,SSW,202,0.0,0.0,84,0.00,,---,0.00,VWS V13.01,2013-01-30 10:53:00,
2013-01-30 05:58:00,66.3,61.3,29.75,SSW,202,0.0,0.0,84,0.00,,---,0.00,VWS V13.01,2013-01-30 10:58:00,
2013-01-30 06:03:00,66.2,61.2,29.75,SSW,202,0.0,0.0,84,0.00,,---,0.00,VWS V13.01,2013-01-30 11:03:00,
2013-01-30 06:08:00,66.0,61.0,29.74,SSW,202,0.0,0.0,84,0.00,,---,0.00,VWS V13.01,2013-01-30 11:08:00,
2013-01-30 06:13:00,66.0,61.4,29.75,SW,225,0.9,0.9,85,0.00,,---,0.00,VWS V13.01,2013-01-30 11:13:00,
2013-01-30 06:18:00,66.0,61.4,29.75,SW,225,0.0,0.0,85,0.00,,---,0.00,VWS V13.01,2013-01-30 11:18:00,
2013-01-30 06:23:00,65.8,61.2,29.75,SW,225,0.0,0.0,85,0.00,,---,0.00,VWS V13.01,2013-01-30 11:23:00,
2013-01-30 06:28:00,65.8,61.2,29.75,SW,225,0.0,0.0,85,0.00,,---,0.00,VWS V13.01,2013-01-30 11:28:00,
2013-01-30 06:33:00,65.8,61.2,29.75,SW,225,0.0,0.0,85,0.00,,---,0.00,VWS V13.01,2013-01-30 11:33:00,
2013-01-30 06:38:00,65.6,61.0,29.75,SW,225,0.0,0.0,85,0.00,,---,0.00,VWS V13.01,2013-01-30 11:38:00,
2013-01-30 06:43:00,65.6,61.0,29.75,SW,225,0.0,0.0,85,0.00,,---,0.00,VWS V13.01,2013-01-30 11:43:00,
2013-01-30 06:48:00,65.4,60.8,29.76,SW,225,0.0,0.0,85,0.00,,---,0.00,VWS V13.01,2013-01-30 11:48:00,
2013-01-30 06:53:00,65.4,60.8,29.76,SW,225,0.0,0.0,85,0.00,,---,0.00,VWS V13.01,2013-01-30 11:53:00,
2013-01-30 06:58:00,65.6,61.0,29.76,SW,225,0.0,0.0,85,0.00,,---,0.00,VWS V13.01,2013-01-30 11:58:00,
2013-01-30 07:03:00,65.6,61.0,29.76,SW,225,0.0,0.0,85,0.00,,---,0.00,VWS V13.01,2013-01-30 12:03:00,
2013-01-30 07:09:00,65.6,61.0,29.76,SW,225,0.0,0.0,85,0.00,,---,0.00,VWS V13.01,2013-01-30 12:09:00,
2013-01-30 07:14:00,65.6,61.0,29.76,SW,225,0.0,0.0,85,0.00,,---,0.00,VWS V13.01,2013-01-30 12:14:00,
2013-01-30 07:19:00,65.6,61.0,29.76,SW,225,0.0,0.0,85,0.00,,---,0.00,VWS V13.01,2013-01-30 12:19:00,
2013-01-30 07:24:00,65.4,60.8,29.76,WSW,248,0.0,0.0,85,0.00,,---,0.00,VWS V13.01,2013-01-30 12:24:00,
2013-01-30 07:29:00,65.4,60.8,29.76,SW,225,0.0,0.0,85,0.00,,---,0.00,VWS V13.01,2013-01-30 12:29:00,
2013-01-30 07:34:00,65.4,60.8,29.76,SSW,202,0.0,0.0,85,0.00,,---,0.00,VWS V13.01,2013-01-30 12:34:00,
2013-01-30 07:39:00,65.4,60.8,29.76,SW,225,0.9,0.9,85,0.00,,---,0.00,VWS V13.01,2013-01-30 12:39:00,
2013-01-30 07:44:00,65.6,61.0,29.76,WSW,248,0.0,0.0,85,0.00,,---,0.00,VWS V13.01,2013-01-30 12:44:00,
2013-01-30 07:49:00,65.8,61.2,29.76,SW,225,0.0,0.0,85,0.00,,---,0.00,VWS V13.01,2013-01-30 12:49:00,
2013-01-30 07:54:00,65.8,61.2,29.75,SW,225,0.0,0.0,85,0.00,,---,0.00,VWS V13.01,2013-01-30 12:54:00,
2013-01-30 07:59:00,66.0,61.4,29.76,West,270,2.6,2.6,85,0.00,,---,0.00,VWS V13.01,2013-01-30 12:59:00,
2013-01-30 08:04:00,66.2,61.6,29.76,WSW,248,0.0,1.3,85,0.00,,---,0.00,VWS V13.01,2013-01-30 13:04:00,
2013-01-30 08:09:00,66.5,61.9,29.76,SW,225,4.6,4.6,85,0.00,,---,0.00,VWS V13.01,2013-01-30 13:09:00,
2013-01-30 08:14:00,66.7,62.0,29.76,SSW,202,4.6,4.6,85,0.00,,---,0.00,VWS V13.01,2013-01-30 13:14:00,
2013-01-30 08:19:00,67.1,62.5,29.75,SSW,202,0.0,0.0,85,0.00,,---,0.00,VWS V13.01,2013-01-30 13:19:00,
2013-01-30 08:24:00,67.2,62.5,29.75,SW,225,3.0,3.0,85,0.00,,---,0.00,VWS V13.01,2013-01-30 13:24:00,
2013-01-30 08:30:00,67.6,62.9,29.75,SW,225,4.9,4.9,85,0.00,,---,0.00,VWS V13.01,2013-01-30 13:30:00,
2013-01-30 08:35:00,67.8,63.1,29.75,SW,225,0.0,0.0,85,0.00,,---,0.00,VWS V13.01,2013-01-30 13:35:00,
2013-01-30 08:40:00,68.1,63.1,29.75,SW,225,6.0,6.0,84,0.00,,---,0.00,VWS V13.01,2013-01-30 13:40:00,
2013-01-30 08:45:00,68.7,63.7,29.74,SW,225,2.6,2.6,84,0.00,,---,0.00,VWS V13.01,2013-01-30 13:45:00,
2013-01-30 08:51:00,69.2,64.2,29.74,SSW,202,2.6,3.3,84,0.00,,---,0.00,VWS V13.01,2013-01-30 13:51:00,
2013-01-30 08:56:00,69.4,64.0,29.74,SSW,202,5.2,5.2,83,0.00,,---,0.00,VWS V13.01,2013-01-30 13:56:00,
2013-01-30 09:01:00,69.6,64.2,29.74,West,270,3.0,3.0,83,0.00,,---,0.00,VWS V13.01,2013-01-30 14:01:00,
2013-01-30 09:06:00,69.9,64.2,29.74,SW,225,7.6,7.6,82,0.00,,---,0.00,VWS V13.01,2013-01-30 14:06:00,
2013-01-30 09:11:00,70.3,64.6,29.74,SSW,202,2.6,4.2,82,0.00,,---,0.00,VWS V13.01,2013-01-30 14:11:00,
2013-01-30 09:16:00,70.5,64.4,29.75,SW,225,1.2,1.2,81,0.00,,---,0.00,VWS V13.01,2013-01-30 14:16:00,
2013-01-30 09:21:00,71.0,64.9,29.74,West,270,0.3,0.4,81,0.00,,---,0.00,VWS V13.01,2013-01-30 14:21:00,
2013-01-30 09:26:00,71.2,65.1,29.74,SSW,202,6.0,6.0,81,0.00,,---,0.00,VWS V13.01,2013-01-30 14:26:00,
2013-01-30 09:32:00,71.6,65.1,29.74,SW,225,6.9,6.9,80,0.00,,---,0.00,VWS V13.01,2013-01-30 14:32:00,
2013-01-30 09:37:00,71.9,65.0,29.74,SW,225,9.6,9.6,79,0.00,,---,0.00,VWS V13.01,2013-01-30 14:37:00,
2013-01-30 09:42:00,72.3,65.1,29.74,SSW,202,0.0,0.0,78,0.00,,---,0.00,VWS V13.01,2013-01-30 14:42:00,
2013-01-30 09:47:00,72.6,65.3,29.74,West,270,6.0,6.0,78,0.00,,---,0.00,VWS V13.01,2013-01-30 14:47:00,
2013-01-30 09:52:00,72.8,65.2,29.73,SW,225,3.0,3.0,77,0.00,,---,0.00,VWS V13.01,2013-01-30 14:52:00,
2013-01-30 09:57:00,73.0,65.4,29.73,SW,225,0.0,0.0,77,0.00,,---,0.00,VWS V13.01,2013-01-30 14:57:00,
2013-01-30 10:02:00,73.2,65.6,29.73,SW,225,2.6,5.8,77,0.00,,---,0.00,VWS V13.01,2013-01-30 15:02:00,
2013-01-30 10:07:00,73.7,66.1,29.73,SSW,202,12.8,12.8,77,0.00,,---,0.00,VWS V13.01,2013-01-30 15:07:00,
2013-01-30 10:12:00,73.9,65.9,29.73,SW,225,4.4,4.4,76,0.00,,---,0.00,VWS V13.01,2013-01-30 15:12:00,
2013-01-30 10:17:00,73.9,65.9,29.73,SW,225,0.9,3.1,76,0.00,,---,0.00,VWS V13.01,2013-01-30 15:17:00,
2013-01-30 10:22:00,74.1,65.7,29.73,SSW,202,3.9,3.9,75,0.00,,---,0.00,VWS V13.01,2013-01-30 15:22:00,
2013-01-30 10:27:00,74.3,65.9,29.73,WSW,248,0.0,0.0,75,0.00,,---,0.00,VWS V13.01,2013-01-30 15:27:00,
2013-01-30 10:32:00,74.4,66.0,29.72,WSW,248,0.0,0.0,75,0.00,,---,0.00,VWS V13.01,2013-01-30 15:32:00,
2013-01-30 10:37:00,74.8,66.3,29.72,WNW,292,3.9,3.9,75,0.00,,---,0.00,VWS V13.01,2013-01-30 15:37:00,
2013-01-30 10:42:00,74.8,66.3,29.72,SW,225,9.6,9.6,75,0.00,,---,0.00,VWS V13.01,2013-01-30 15:42:00,
2013-01-30 10:47:00,74.8,66.0,29.72,SW,225,6.0,6.4,74,0.00,,---,0.00,VWS V13.01,2013-01-30 15:47:00,
2013-01-30 10:52:00,74.8,65.6,29.72,North,360,2.2,2.2,73,0.00,,---,0.00,VWS V13.01,2013-01-30 15:52:00,
2013-01-30 10:57:00,74.8,65.6,29.71,North,360,2.2,2.2,73,0.00,,---,0.00,VWS V13.01,2013-01-30 15:57:00,
2013-01-30 11:02:00,75.0,65.8,29.71,SSW,202,1.2,2.9,73,0.00,,---,0.00,VWS V13.01,2013-01-30 16:02:00,
2013-01-30 11:07:00,75.3,66.1,29.70,WSW,248,5.7,5.7,73,0.00,,---,0.00,VWS V13.01,2013-01-30 16:07:00,
2013-01-30 11:12:00,75.5,66.2,29.70,WSW,248,7.4,7.4,73,0.00,,---,0.00,VWS V13.01,2013-01-30 16:12:00,
2013-01-30 11:17:00,75.7,66.4,29.70,West,270,7.6,7.6,73,0.00,,---,0.00,VWS V13.01,2013-01-30 16:17:00,
2013-01-30 11:22:00,75.7,66.0,29.70,SSW,202,4.9,4.9,72,0.00,,---,0.00,VWS V13.01,2013-01-30 16:22:00,
2013-01-30 11:27:00,76.1,66.8,29.70,NNW,338,3.0,5.1,73,0.00,,---,0.00,VWS V13.01,2013-01-30 16:27:00,
2013-01-30 11:32:00,76.2,66.9,29.69,SSW,202,9.0,9.0,73,0.00,,---,0.00,VWS V13.01,2013-01-30 16:32:00,
2013-01-30 11:37:00,76.2,66.9,29.69,SW,225,6.0,6.0,73,0.00,,---,0.00,VWS V13.01,2013-01-30 16:37:00,
2013-01-30 11:42:00,76.2,66.9,29.69,SSW,202,6.0,6.0,73,0.00,,---,0.00,VWS V13.01,2013-01-30 16:42:00,
2013-01-30 11:47:00,76.2,66.5,29.69,SW,225,3.9,3.9,72,0.00,,---,0.00,VWS V13.01,2013-01-30 16:47:00,
2013-01-30 11:52:00,76.2,66.9,29.68,NW,315,7.4,7.4,73,0.00,,---,0.00,VWS V13.01,2013-01-30 16:52:00,
2013-01-30 11:57:00,76.2,66.9,29.68,NW,315,7.4,7.4,73,0.00,,---,0.00,VWS V13.01,2013-01-30 16:57:00,
2013-01-30 12:02:00,76.2,66.5,29.68,SSW,202,6.0,6.0,72,0.00,,---,0.00,VWS V13.01,2013-01-30 17:02:00,
2013-01-30 12:07:00,76.2,66.5,29.68,SW,225,8.2,8.2,72,0.00,,---,0.00,VWS V13.01,2013-01-30 17:07:00,
2013-01-30 12:12:00,76.4,66.3,29.67,WSW,248,4.6,4.6,71,0.00,,---,0.00,VWS V13.01,2013-01-30 17:12:00,
2013-01-30 12:17:00,76.8,67.1,29.67,West,270,1.7,2.0,72,0.00,,---,0.00,VWS V13.01,2013-01-30 17:17:00,
2013-01-30 12:22:00,76.8,66.7,29.66,SW,225,4.6,4.6,71,0.00,,---,0.00,VWS V13.01,2013-01-30 17:22:00,
2013-01-30 12:27:00,77.3,66.8,29.65,SW,225,4.6,4.6,70,0.00,,---,0.00,VWS V13.01,2013-01-30 17:27:00,
2013-01-30 12:32:00,77.7,67.1,29.65,WNW,292,5.7,5.7,70,0.00,,---,0.00,VWS V13.01,2013-01-30 17:32:00,
2013-01-30 12:37:00,77.7,66.7,29.65,SSW,202,13.3,13.3,69,0.00,,---,0.00,VWS V13.01,2013-01-30 17:37:00,
2013-01-30 12:42:00,77.7,66.7,29.64,West,270,8.2,8.2,69,0.00,,---,0.00,VWS V13.01,2013-01-30 17:42:00,
2013-01-30 12:47:00,78.0,67.0,29.64,SSW,202,9.6,9.6,69,0.00,,---,0.00,VWS V13.01,2013-01-30 17:47:00,
2013-01-30 12:52:00,78.0,66.6,29.64,SSW,202,9.6,9.6,68,0.00,,---,0.00,VWS V13.01,2013-01-30 17:52:00,
2013-01-30 12:57:00,78.0,66.6,29.63,SSW,202,9.6,9.6,68,0.00,,---,0.00,VWS V13.01,2013-01-30 17:57:00,
2013-01-30 13:02:00,78.2,66.8,29.63,SSW,202,8.2,8.2,68,0.00,,---,0.00,VWS V13.01,2013-01-30 18:02:00,
2013-01-30 13:07:00,78.2,66.8,29.63,SSW,202,8.2,8.2,68,0.00,,---,0.00,VWS V13.01,2013-01-30 18:07:00,
2013-01-30 13:12:00,78.2,66.8,29.63,SSW,202,8.2,8.2,68,0.00,,---,0.00,VWS V13.01,2013-01-30 18:12:00,
2013-01-30 13:17:00,78.2,66.8,29.63,SSW,202,8.2,8.2,68,0.00,,---,0.00,VWS V13.01,2013-01-30 18:17:00,
2013-01-30 13:22:00,78.2,66.8,29.63,SSW,202,8.2,8.2,68,0.00,,---,0.00,VWS V13.01,2013-01-30 18:22:00,
2013-01-30 13:27:00,78.2,66.8,29.63,SSW,202,8.2,8.2,68,0.00,,---,0.00,VWS V13.01,2013-01-30 18:27:00,
2013-01-30 13:32:00,78.2,66.8,29.63,SSW,202,8.2,8.2,68,0.00,,---,0.00,VWS V13.01,2013-01-30 18:32:00,
2013-01-30 13:37:00,78.2,66.8,29.63,SSW,202,8.2,8.2,68,0.00,,---,0.00,VWS V13.01,2013-01-30 18:37:00,
2013-01-30 13:42:00,79.7,66.0,29.64,SW,225,0.6,0.6,63,0.00,,---,0.00,VWS V13.01,2013-01-30 18:42:00,
2013-01-30 13:47:00,79.7,66.0,29.64,SW,225,0.6,0.6,63,0.00,,---,0.00,VWS V13.01,2013-01-30 18:47:00,
2013-01-30 13:52:00,79.7,66.0,29.64,SW,225,0.6,0.6,63,0.00,,---,0.00,VWS V13.01,2013-01-30 18:52:00,
2013-01-30 13:57:00,79.7,66.0,29.64,SW,225,0.6,0.6,63,0.00,,---,0.00,VWS V13.01,2013-01-30 18:57:00,
2013-01-30 14:02:00,79.7,66.0,29.63,SW,225,0.6,0.6,63,0.00,,---,0.00,VWS V13.01,2013-01-30 19:02:00,
2013-01-30 14:07:00,79.7,66.0,29.63,SW,225,0.6,0.6,63,0.00,,---,0.00,VWS V13.01,2013-01-30 19:07:00,
2013-01-30 14:12:00,79.7,66.0,29.63,SW,225,0.6,0.6,63,0.00,,---,0.00,VWS V13.01,2013-01-30 19:12:00,
2013-01-30 14:17:00,81.3,67.5,29.63,SW,225,0.6,0.6,63,0.00,,---,0.00,VWS V13.01,2013-01-30 19:17:00,
2013-01-30 14:22:00,81.3,67.5,29.63,SW,225,0.6,0.6,63,0.00,,---,0.00,VWS V13.01,2013-01-30 19:22:00,
2013-01-30 14:27:00,81.3,67.5,29.63,SW,225,0.6,0.6,63,0.00,,---,0.00,VWS V13.01,2013-01-30 19:27:00,
2013-01-30 14:32:00,81.3,67.5,29.63,SW,225,0.6,0.6,63,0.00,,---,0.00,VWS V13.01,2013-01-30 19:32:00,
2013-01-30 14:37:00,81.3,67.5,29.63,SW,225,0.6,0.6,63,0.00,,---,0.00,VWS V13.01,2013-01-30 19:37:00,
2013-01-30 14:42:00,81.3,67.5,29.63,SW,225,0.6,0.6,63,0.00,,---,0.00,VWS V13.01,2013-01-30 19:42:00,
2013-01-30 14:47:00,81.3,67.5,29.63,SW,225,0.6,0.6,63,0.00,,---,0.00,VWS V13.01,2013-01-30 19:47:00,
2013-01-30 14:52:00,81.3,67.5,29.63,SW,225,0.6,0.6,63,0.00,,---,0.00,VWS V13.01,2013-01-30 19:52:00,
2013-01-30 14:57:00,81.3,67.5,29.63,SW,225,0.6,0.6,63,0.00,,---,0.00,VWS V13.01,2013-01-30 19:57:00,
2013-01-30 15:02:00,81.3,67.5,29.63,SW,225,0.6,0.6,63,0.00,,---,0.00,VWS V13.01,2013-01-30 20:02:00,
2013-01-30 15:07:00,81.3,67.5,29.63,SW,225,0.6,0.6,63,0.00,,---,0.00,VWS V13.01,2013-01-30 20:07:00,
2013-01-30 15:12:00,81.3,67.5,29.63,SW,225,0.6,0.6,63,0.00,,---,0.00,VWS V13.01,2013-01-30 20:12:00,
2013-01-30 15:17:00,81.3,67.5,29.63,SW,225,0.6,0.6,63,0.00,,---,0.00,VWS V13.01,2013-01-30 20:17:00,
2013-01-30 15:22:00,81.3,67.5,29.63,SW,225,0.6,0.6,63,0.00,,---,0.00,VWS V13.01,2013-01-30 20:22:00,
2013-01-30 15:27:00,81.3,67.5,29.63,SW,225,0.6,0.6,63,0.00,,---,0.00,VWS V13.01,2013-01-30 20:27:00,
2013-01-30 15:32:00,81.3,67.5,29.63,SW,225,0.6,0.6,63,0.00,,---,0.00,VWS V13.01,2013-01-30 20:32:00,
2013-01-30 15:37:00,81.3,67.5,29.63,SW,225,0.6,0.6,63,0.00,,---,0.00,VWS V13.01,2013-01-30 20:37:00,
2013-01-30 15:42:00,81.3,67.5,29.63,SW,225,0.6,0.6,63,0.00,,---,0.00,VWS V13.01,2013-01-30 20:42:00,
2013-01-30 15:47:00,81.3,67.5,29.63,SW,225,0.6,0.6,63,0.00,,---,0.00,VWS V13.01,2013-01-30 20:47:00,
2013-01-30 15:52:00,81.3,67.5,29.63,SW,225,0.6,0.6,63,0.00,,---,0.00,VWS V13.01,2013-01-30 20:52:00,
2013-01-30 15:57:00,81.3,67.5,29.63,SW,225,0.6,0.6,63,0.00,,---,0.00,VWS V13.01,2013-01-30 20:57:00,
2013-01-30 16:02:00,81.3,67.5,29.63,SW,225,0.6,0.6,63,0.00,,---,0.00,VWS V13.01,2013-01-30 21:02:00,
2013-01-30 16:07:00,81.3,67.5,29.63,SW,225,0.6,0.6,63,0.00,,---,0.00,VWS V13.01,2013-01-30 21:07:00,
2013-01-30 16:12:00,81.3,67.5,29.63,SW,225,0.6,0.6,63,0.00,,---,0.00,VWS V13.01,2013-01-30 21:12:00,
2013-01-30 16:17:00,81.3,67.5,29.63,SW,225,0.6,0.6,63,0.00,,---,0.00,VWS V13.01,2013-01-30 21:17:00,
2013-01-30 16:22:00,81.3,67.5,29.63,SW,225,0.6,0.6,63,0.00,,---,0.00,VWS V13.01,2013-01-30 21:22:00,
2013-01-30 16:27:00,81.3,67.5,29.63,SW,225,0.6,0.6,63,0.00,,---,0.00,VWS V13.01,2013-01-30 21:27:00,
2013-01-30 16:32:00,81.3,67.5,29.63,SW,225,0.6,0.6,63,0.00,,---,0.00,VWS V13.01,2013-01-30 21:32:00,
2013-01-30 16:37:00,81.3,67.5,29.63,SW,225,0.6,0.6,63,0.00,,---,0.00,VWS V13.01,2013-01-30 21:37:00,
2013-01-30 16:42:00,81.3,67.5,29.63,SW,225,0.6,0.6,63,0.00,,---,0.00,VWS V13.01,2013-01-30 21:42:00,
2013-01-30 16:47:00,81.3,67.5,29.63,SW,225,0.6,0.6,63,0.00,,---,0.00,VWS V13.01,2013-01-30 21:47:00,
2013-01-30 16:52:00,81.3,67.5,29.63,SW,225,0.6,0.6,63,0.00,,---,0.00,VWS V13.01,2013-01-30 21:52:00,
2013-01-30 16:57:00,81.3,67.5,29.63,SW,225,0.6,0.6,63,0.00,,---,0.00,VWS V13.01,2013-01-30 21:57:00,
2013-01-30 17:02:00,81.3,67.5,29.63,SW,225,0.6,0.6,63,0.00,,---,0.00,VWS V13.01,2013-01-30 22:02:00,
2013-01-30 17:07:00,81.3,67.5,29.63,SW,225,0.6,0.6,63,0.00,,---,0.00,VWS V13.01,2013-01-30 22:07:00,
2013-01-30 17:12:00,81.3,67.5,29.63,SW,225,0.6,0.6,63,0.00,,---,0.00,VWS V13.01,2013-01-30 22:12:00,
2013-01-30 17:17:00,81.3,67.5,29.63,SW,225,0.6,0.6,63,0.00,,---,0.00,VWS V13.01,2013-01-30 22:17:00,
2013-01-30 17:22:00,81.3,67.5,29.63,SW,225,0.6,0.6,63,0.00,,---,0.00,VWS V13.01,2013-01-30 22:22:00,
2013-01-30 17:27:00,81.3,67.5,29.63,SW,225,0.6,0.6,63,0.00,,---,0.00,VWS V13.01,2013-01-30 22:27:00,
2013-01-30 17:32:00,81.3,67.5,29.63,SW,225,0.6,0.6,63,0.00,,---,0.00,VWS V13.01,2013-01-30 22:32:00,
2013-01-30 17:37:00,81.3,67.5,29.63,SW,225,0.6,0.6,63,0.00,,---,0.00,VWS V13.01,2013-01-30 22:37:00,
2013-01-30 17:42:00,81.3,67.5,29.63,SW,225,0.6,0.6,63,0.00,,---,0.00,VWS V13.01,2013-01-30 22:42:00,
2013-01-30 17:47:00,81.3,67.5,29.63,SW,225,0.6,0.6,63,0.00,,---,0.00,VWS V13.01,2013-01-30 22:47:00,
2013-01-30 17:52:00,81.3,67.5,29.63,SW,225,0.6,0.6,63,0.00,,---,0.00,VWS V13.01,2013-01-30 22:52:00,
2013-01-30 17:57:00,81.3,67.5,29.63,SW,225,0.6,0.6,63,0.00,,---,0.00,VWS V13.01,2013-01-30 22:57:00,
2013-01-30 18:02:00,81.3,67.5,29.63,SW,225,0.6,0.6,63,0.00,,---,0.00,VWS V13.01,2013-01-30 23:02:00,
2013-01-30 18:07:00,81.3,67.5,29.63,SW,225,0.6,0.6,63,0.00,,---,0.00,VWS V13.01,2013-01-30 23:07:00,
2013-01-30 18:12:00,81.3,67.5,29.63,SW,225,0.6,0.6,63,0.00,,---,0.00,VWS V13.01,2013-01-30 23:12:00,
2013-01-30 18:17:00,81.3,67.5,29.63,SW,225,0.6,0.6,63,0.00,,---,0.00,VWS V13.01,2013-01-30 23:17:00,
2013-01-30 18:22:00,81.3,67.5,29.63,SW,225,0.6,0.6,63,0.00,,---,0.00,VWS V13.01,2013-01-30 23:22:00,
2013-01-30 18:27:00,77.5,62.1,29.61,SW,225,0.6,0.6,59,0.00,,---,0.00,VWS V13.01,2013-01-30 23:27:00,
2013-01-30 18:32:00,77.5,62.1,29.61,SW,225,0.6,0.6,59,0.00,,---,0.00,VWS V13.01,2013-01-30 23:32:00,
2013-01-30 18:37:00,77.5,62.1,29.62,SW,225,0.6,0.6,59,0.00,,---,0.00,VWS V13.01,2013-01-30 23:37:00,
2013-01-30 18:42:00,77.5,62.1,29.62,SW,225,0.6,0.6,59,0.00,,---,0.00,VWS V13.01,2013-01-30 23:42:00,
2013-01-30 18:47:00,77.5,62.1,29.62,SW,225,0.6,0.6,59,0.00,,---,0.00,VWS V13.01,2013-01-30 23:47:00,
2013-01-30 18:52:00,77.5,62.1,29.62,SW,225,0.6,0.6,59,0.00,,---,0.00,VWS V13.01,2013-01-30 23:52:00,
2013-01-30 18:57:00,77.5,62.1,29.62,SW,225,0.6,0.6,59,0.00,,---,0.00,VWS V13.01,2013-01-30 23:57:00,
2013-01-30 19:02:00,77.5,62.1,29.62,SW,225,0.6,0.6,59,0.00,,---,0.00,VWS V13.01,2013-01-31 00:02:00,
2013-01-30 19:07:00,75.7,63.1,29.63,SW,225,0.6,0.6,65,0.00,,---,0.00,VWS V13.01,2013-01-31 00:07:00,
2013-01-30 19:12:00,75.7,63.1,29.62,SW,225,0.6,0.6,65,0.00,,---,0.00,VWS V13.01,2013-01-31 00:12:00,
2013-01-30 19:17:00,75.7,63.1,29.62,SW,225,0.6,0.6,65,0.00,,---,0.00,VWS V13.01,2013-01-31 00:17:00,
2013-01-30 19:22:00,75.7,63.1,29.62,SW,225,0.6,0.6,65,0.00,,---,0.00,VWS V13.01,2013-01-31 00:22:00,
2013-01-30 19:27:00,75.7,63.1,29.62,SW,225,0.6,0.6,65,0.00,,---,0.00,VWS V13.01,2013-01-31 00:27:00,
2013-01-30 19:32:00,75.7,63.1,29.61,SW,225,0.6,0.6,65,0.00,,---,0.00,VWS V13.01,2013-01-31 00:32:00,
2013-01-30 19:37:00,75.7,63.1,29.61,SW,225,0.6,0.6,65,0.00,,---,0.00,VWS V13.01,2013-01-31 00:37:00,
2013-01-30 19:42:00,75.7,63.1,29.61,SW,225,0.6,0.6,65,0.00,,---,0.00,VWS V13.01,2013-01-31 00:42:00,
2013-01-30 19:47:00,75.7,63.1,29.61,SW,225,0.6,0.6,65,0.00,,---,0.00,VWS V13.01,2013-01-31 00:47:00,
2013-01-30 19:52:00,75.7,63.1,29.61,SW,225,0.6,0.6,65,0.00,,---,0.00,VWS V13.01,2013-01-31 00:52:00,
2013-01-30 19:57:00,75.7,63.1,29.61,SW,225,0.6,0.6,65,0.00,,---,0.00,VWS V13.01,2013-01-31 00:57:00,
2013-01-30 20:02:00,75.7,63.1,29.61,SW,225,0.6,0.6,65,0.00,,---,0.00,VWS V13.01,2013-01-31 01:02:00,
2013-01-30 20:07:00,74.1,63.3,29.61,SSW,202,0.0,0.0,69,0.00,,---,0.00,VWS V13.01,2013-01-31 01:07:00,
2013-01-30 20:12:00,74.1,63.3,29.62,SW,225,0.0,1.7,69,0.00,,---,0.00,VWS V13.01,2013-01-31 01:12:00,
2013-01-30 20:17:00,73.9,63.1,29.62,SW,225,2.6,2.6,69,0.00,,---,0.00,VWS V13.01,2013-01-31 01:17:00,
2013-01-30 20:22:00,73.9,63.5,29.62,SW,225,0.0,0.0,70,0.00,,---,0.00,VWS V13.01,2013-01-31 01:22:00,
2013-01-30 20:27:00,73.7,63.3,29.63,SW,225,3.0,3.0,70,0.00,,---,0.00,VWS V13.01,2013-01-31 01:27:00,
2013-01-30 20:32:00,73.5,63.1,29.63,SW,225,0.0,0.0,70,0.00,,---,0.00,VWS V13.01,2013-01-31 01:32:00,
2013-01-30 20:37:00,73.5,63.1,29.63,SW,225,6.0,6.0,70,0.00,,---,0.00,VWS V13.01,2013-01-31 01:37:00,
2013-01-30 20:42:00,73.2,62.8,29.63,SSW,202,3.0,4.2,70,0.00,,---,0.00,VWS V13.01,2013-01-31 01:42:00,
2013-01-30 20:47:00,73.2,63.2,29.63,SSW,202,0.3,0.3,71,0.00,,---,0.00,VWS V13.01,2013-01-31 01:47:00,
2013-01-30 20:52:00,73.2,63.2,29.63,SW,225,1.7,1.7,71,0.00,,---,0.00,VWS V13.01,2013-01-31 01:52:00,
2013-01-30 20:57:00,73.0,63.0,29.63,SW,225,0.0,0.0,71,0.00,,---,0.00,VWS V13.01,2013-01-31 01:57:00,
2013-01-30 21:02:00,73.0,63.5,29.63,SW,225,0.0,0.0,72,0.00,,---,0.00,VWS V13.01,2013-01-31 02:02:00,
2013-01-30 21:07:00,72.8,63.3,29.63,North,360,0.0,0.0,72,0.00,,---,0.00,VWS V13.01,2013-01-31 02:07:00,
2013-01-30 21:12:00,72.6,63.1,29.63,SSW,202,0.0,0.0,72,0.00,,---,0.00,VWS V13.01,2013-01-31 02:12:00,
2013-01-30 21:17:00,72.6,63.1,29.64,SSW,202,3.9,3.9,72,0.00,,---,0.00,VWS V13.01,2013-01-31 02:17:00,
2013-01-30 21:22:00,72.5,63.4,29.63,SW,225,0.9,0.9,73,0.00,,---,0.00,VWS V13.01,2013-01-31 02:22:00,
2013-01-30 21:27:00,72.5,63.4,29.64,SW,225,0.6,2.6,73,0.00,,---,0.00,VWS V13.01,2013-01-31 02:27:00,
2013-01-30 21:32:00,72.3,63.2,29.63,WSW,248,0.0,0.0,73,0.00,,---,0.00,VWS V13.01,2013-01-31 02:32:00,
2013-01-30 21:37:00,72.3,63.2,29.63,SSW,202,1.9,1.9,73,0.00,,---,0.00,VWS V13.01,2013-01-31 02:37:00,
2013-01-30 21:42:00,72.3,63.2,29.62,SW,225,1.2,1.2,73,0.00,,---,0.00,VWS V13.01,2013-01-31 02:42:00,
2013-01-30 21:47:00,72.1,63.0,29.62,SSW,202,0.0,0.0,73,0.00,,---,0.00,VWS V13.01,2013-01-31 02:47:00,
2013-01-30 21:52:00,72.1,63.4,29.62,SW,225,6.0,6.0,74,0.00,,---,0.00,VWS V13.01,2013-01-31 02:52:00,
2013-01-30 21:57:00,71.9,63.2,29.62,SSW,202,7.4,7.4,74,0.00,,---,0.00,VWS V13.01,2013-01-31 02:57:00,
2013-01-30 22:02:00,71.9,63.2,29.62,SSW,202,5.7,5.7,74,0.00,,---,0.00,VWS V13.01,2013-01-31 03:02:00,
2013-01-30 22:07:00,71.7,63.4,29.61,SW,225,4.6,4.6,75,0.00,,---,0.00,VWS V13.01,2013-01-31 03:07:00,
2013-01-30 22:12:00,71.7,63.4,29.62,SW,225,0.0,0.0,75,0.00,,---,0.00,VWS V13.01,2013-01-31 03:12:00,
2013-01-30 22:17:00,71.7,63.4,29.63,SSW,202,0.0,0.0,75,0.00,,---,0.00,VWS V13.01,2013-01-31 03:17:00,
2013-01-30 22:22:00,71.6,63.3,29.63,SSW,202,0.0,0.0,75,0.00,,---,0.00,VWS V13.01,2013-01-31 03:22:00,
2013-01-30 22:27:00,71.4,63.5,29.63,SW,225,1.9,1.9,76,0.00,,---,0.00,VWS V13.01,2013-01-31 03:27:00,
2013-01-30 22:32:00,71.4,63.5,29.63,SSW,202,3.3,3.3,76,0.00,,---,0.00,VWS V13.01,2013-01-31 03:32:00,
2013-01-30 22:37:00,71.2,63.3,29.63,SSW,202,1.2,1.2,76,0.00,,---,0.00,VWS V13.01,2013-01-31 03:37:00,
2013-01-30 22:42:00,71.2,63.3,29.63,SSW,202,0.0,0.0,76,0.00,,---,0.00,VWS V13.01,2013-01-31 03:42:00,
2013-01-30 22:47:00,71.2,63.3,29.63,SSW,202,0.0,0.0,76,0.00,,---,0.00,VWS V13.01,2013-01-31 03:47:00,
2013-01-30 22:52:00,71.0,63.1,29.63,SW,225,3.3,3.3,76,0.00,,---,0.00,VWS V13.01,2013-01-31 03:52:00,
2013-01-30 22:57:00,70.8,63.2,29.63,West,270,1.2,4.2,77,0.00,,---,0.00,VWS V13.01,2013-01-31 03:57:00,
2013-01-30 23:02:00,70.8,63.2,29.63,SSW,202,0.0,0.0,77,0.00,,---,0.00,VWS V13.01,2013-01-31 04:02:00,
2013-01-30 23:07:00,70.8,63.2,29.63,SW,225,0.0,0.0,77,0.00,,---,0.00,VWS V13.01,2013-01-31 04:07:00,
2013-01-30 23:12:00,70.7,63.1,29.64,SSW,202,0.0,0.0,77,0.00,,---,0.00,VWS V13.01,2013-01-31 04:12:00,
2013-01-30 23:17:00,70.7,63.5,29.63,SSW,202,0.0,0.0,78,0.00,,---,0.00,VWS V13.01,2013-01-31 04:17:00,
2013-01-30 23:22:00,70.5,63.3,29.63,SW,225,0.0,0.0,78,0.00,,---,0.00,VWS V13.01,2013-01-31 04:22:00,
2013-01-30 23:27:00,70.5,63.3,29.63,SW,225,0.0,0.0,78,0.00,,---,0.00,VWS V13.01,2013-01-31 04:27:00,
2013-01-30 23:32:00,70.5,63.3,29.64,SW,225,0.0,0.0,78,0.00,,---,0.00,VWS V13.01,2013-01-31 04:32:00,
2013-01-30 23:37:00,70.5,63.3,29.64,SSW,202,0.0,0.0,78,0.00,,---,0.00,VWS V13.01,2013-01-31 04:37:00,
2013-01-30 23:42:00,70.5,63.3,29.64,North,360,0.0,0.0,78,0.00,,---,0.00,VWS V13.01,2013-01-31 04:42:00,
2013-01-30 23:47:00,70.3,63.1,29.64,WSW,248,0.0,0.0,78,0.00,,---,0.00,VWS V13.01,2013-01-31 04:47:00,
2013-01-30 23:52:00,70.3,63.5,29.64,SSW,202,0.0,0.0,79,0.00,,---,0.00,VWS V13.01,2013-01-31 04:52:00,
2013-01-30 23:57:00,70.1,63.3,29.64,SW,225,1.7,1.7,79,0.00,,---,0.00,VWS V13.01,2013-01-31 04:57:00,